timestamp,wind_dir_avg,wind_spd_avg,wind_spd_max_dir,wind_spd_gust,battery_voltage,lat,long
2024-01-30 00:04:00+00:00,37.0,16.57,40.0,20.02,11.77,47.59359,-54.27349
2024-01-30 00:14:00+00:00,29.0,16.69,34.0,20.5,11.77,47.59359,-54.27349
2024-01-30 00:24:00+00:00,27.0,16.96,27.0,21.94,11.77,47.59359,-54.27349
2024-01-30 00:34:00+00:00,33.0,20.93,36.0,24.45,11.77,47.59359,-54.27349
2024-01-30 00:44:00+00:00,30.0,17.42,30.0,20.12,11.77,47.59359,-54.27349
2024-01-30 00:54:00+00:00,24.0,18.77,27.0,21.11,11.77,47.59359,-54.27349
2024-01-30 01:04:00+00:00,26.0,17.84,21.0,20.59,11.77,47.59359,-54.27349
2024-01-30 01:14:00+00:00,33.0,19.01,37.0,22.85,11.77,47.59359,-54.27349
2024-01-30 01:24:00+00:00,27.0,20.3,36.0,25.25,11.77,47.59359,-54.27349
2024-01-30 01:34:00+00:00,27.0,18.45,36.0,21.33,11.77,47.59359,-54.27349
2024-01-30 01:44:00+00:00,30.0,16.17,27.0,19.13,11.77,47.59359,-54.27349
2024-01-30 01:54:00+00:00,24.0,15.9,24.0,18.24,11.77,47.59359,-54.27349
2024-01-30 02:04:00+00:00,29.0,16.42,33.0,21.31,11.77,47.59359,-54.27349
2024-01-30 02:14:00+00:00,31.0,14.49,40.0,17.12,11.77,47.59359,-54.27349
2024-01-30 02:24:00+00:00,25.0,17.34,18.0,22.15,11.77,47.59359,-54.27349
2024-01-30 02:34:00+00:00,26.0,16.37,32.0,19.26,11.77,47.59359,-54.27349
2024-01-30 02:44:00+00:00,25.0,16.85,20.0,20.44,11.77,47.59359,-54.27349
2024-01-30 02:54:00+00:00,26.0,16.18,23.0,18.52,11.77,47.59359,-54.27349
2024-01-30 03:04:00+00:00,29.0,16.41,42.0,19.65,11.77,47.59359,-54.27349
2024-01-30 03:14:00+00:00,28.0,14.57,32.0,17.29,11.77,47.59359,-54.27349
2024-01-30 03:24:00+00:00,23.0,15.84,20.0,17.16,11.77,47.59359,-54.27349
2024-01-30 03:34:00+00:00,21.0,16.73,15.0,19.43,11.77,47.59359,-54.27349
2024-01-30 03:44:00+00:00,23.0,16.14,18.0,20.06,11.77,47.59359,-54.27349
2024-01-30 03:54:00+00:00,28.0,16.36,40.0,21.65,11.77,47.59359,-54.27349
2024-01-30 04:04:00+00:00,28.0,14.69,37.0,18.57,11.77,47.59359,-54.27349
2024-01-30 04:14:00+00:00,25.0,14.95,21.0,18.47,11.77,47.59359,-54.27349
2024-01-30 04:24:00+00:00,30.0,17.21,37.0,20.99,11.77,47.59359,-54.27349
2024-01-30 04:34:00+00:00,27.0,16.85,31.0,20.24,11.77,47.59359,-54.27349
2024-01-30 04:44:00+00:00,26.0,15.31,34.0,20.22,11.77,47.59359,-54.27349
2024-01-30 04:54:00+00:00,22.0,16.57,20.0,18.12,11.77,47.59359,-54.27349
2024-01-30 05:04:00+00:00,20.0,17.08,16.0,18.86,11.77,47.59359,-54.27349
2024-01-30 05:14:00+00:00,34.0,15.91,43.0,21.66,11.77,47.59359,-54.27349
2024-01-30 05:24:00+00:00,21.0,16.31,20.0,19.75,11.77,47.59359,-54.27349
2024-01-30 05:34:00+00:00,22.0,16.56,22.0,19.15,11.77,47.59359,-54.27349
2024-01-30 05:44:00+00:00,21.0,16.72,21.0,18.76,11.77,47.59359,-54.27349
2024-01-30 05:54:00+00:00,22.0,18.0,30.0,21.42,11.77,47.59359,-54.27349
2024-01-30 06:04:00+00:00,20.0,16.7,18.0,19.35,11.77,47.59359,-54.27349
2024-01-30 06:14:00+00:00,22.0,15.87,31.0,19.3,11.77,47.59359,-54.27349
2024-01-30 06:24:00+00:00,24.0,17.96,32.0,21.14,11.77,47.59359,-54.27349
2024-01-30 06:34:00+00:00,24.0,15.77,39.0,18.08,11.77,47.59359,-54.27349
2024-01-30 06:44:00+00:00,21.0,15.85,20.0,17.56,11.77,47.59359,-54.27349
2024-01-30 06:54:00+00:00,23.0,17.75,34.0,20.94,11.77,47.59359,-54.27349
2024-01-30 07:04:00+00:00,19.0,17.52,15.0,19.82,11.77,47.59359,-54.27349
2024-01-30 07:14:00+00:00,21.0,16.34,22.0,18.31,11.77,47.59359,-54.27349
2024-01-30 07:24:00+00:00,25.0,15.85,36.0,20.18,11.77,47.59359,-54.27349
2024-01-30 07:34:00+00:00,30.0,17.19,32.0,21.82,11.77,47.59359,-54.27349
2024-01-30 07:44:00+00:00,20.0,16.59,30.0,20.06,11.77,47.59359,-54.27349
2024-01-30 07:54:00+00:00,24.0,15.06,24.0,17.88,11.77,47.59359,-54.27349
2024-01-30 08:04:00+00:00,21.0,15.83,21.0,19.24,11.77,47.59359,-54.27349
2024-01-30 08:14:00+00:00,23.0,15.24,32.0,18.28,11.77,47.59359,-54.27349
2024-01-30 08:24:00+00:00,20.0,16.55,19.0,18.62,11.77,47.59359,-54.27349
2024-01-30 08:34:00+00:00,25.0,15.03,42.0,18.05,11.77,47.59359,-54.27349
2024-01-30 08:44:00+00:00,21.0,16.69,20.0,20.06,11.77,47.59359,-54.27349
2024-01-30 08:54:00+00:00,23.0,15.04,23.0,17.07,11.77,47.59359,-54.27349
2024-01-30 09:04:00+00:00,23.0,14.84,17.0,18.49,11.77,47.59359,-54.27349
2024-01-30 09:14:00+00:00,20.0,16.81,20.0,19.51,11.77,47.59359,-54.27349
2024-01-30 09:24:00+00:00,21.0,16.51,18.0,19.39,11.77,47.59359,-54.27349
2024-01-30 09:34:00+00:00,26.0,15.54,37.0,19.51,11.77,47.59359,-54.27349
2024-01-30 09:44:00+00:00,24.0,15.79,37.0,19.59,11.77,47.59359,-54.27349
2024-01-30 09:54:00+00:00,26.0,14.83,18.0,16.89,11.77,47.59359,-54.27349
2024-01-30 10:04:00+00:00,21.0,16.8,17.0,19.2,11.77,47.59359,-54.27349
2024-01-30 11:14:00+00:00,22.0,15.26,23.0,17.49,11.7,47.59359,-54.27349
2024-01-30 11:24:00+00:00,24.0,14.19,23.0,16.01,11.7,47.59359,-54.27349
2024-01-30 11:34:00+00:00,23.0,14.47,23.0,16.7,11.7,47.59359,-54.27349
2024-01-30 11:44:00+00:00,19.0,12.99,29.0,16.2,11.7,47.59359,-54.27349
2024-01-30 11:54:00+00:00,24.0,15.3,24.0,17.45,11.7,47.59359,-54.27349
2024-01-30 12:04:00+00:00,27.0,13.86,23.0,16.89,11.7,47.59359,-54.27349
2024-01-30 12:14:00+00:00,29.0,12.58,24.0,15.13,11.77,47.59359,-54.27349
2024-01-30 12:24:00+00:00,28.0,12.71,27.0,14.48,11.77,47.59359,-54.27349
2024-01-30 12:34:00+00:00,26.0,14.45,29.0,16.69,11.77,47.59359,-54.27349
2024-01-30 12:44:00+00:00,26.0,14.21,22.0,15.6,11.77,47.59359,-54.27349
2024-01-30 12:54:00+00:00,24.0,13.77,24.0,16.54,11.77,47.59359,-54.27349
2024-01-30 13:04:00+00:00,18.0,12.32,35.0,14.48,11.77,47.59359,-54.27349
2024-01-30 13:14:00+00:00,24.0,12.65,31.0,15.58,12.41,47.59359,-54.27349
2024-01-30 13:24:00+00:00,32.0,12.46,44.0,15.59,12.41,47.59359,-54.27349
2024-01-30 13:34:00+00:00,23.0,11.29,28.0,12.97,12.41,47.59359,-54.27349
2024-01-30 13:44:00+00:00,18.0,12.33,18.0,13.99,12.41,47.59359,-54.27349
2024-01-30 13:54:00+00:00,27.0,14.64,22.0,17.42,12.41,47.59359,-54.27349
2024-01-30 14:04:00+00:00,25.0,12.13,17.0,15.02,12.41,47.59359,-54.27349
2024-01-30 14:14:00+00:00,24.0,12.86,18.0,14.42,13.21,47.59359,-54.27349
2024-01-30 14:24:00+00:00,26.0,13.29,33.0,14.83,13.21,47.59359,-54.27349
2024-01-30 14:34:00+00:00,31.0,11.89,33.0,13.59,13.21,47.59359,-54.27349
2024-01-30 14:44:00+00:00,21.0,13.77,28.0,16.06,13.21,47.59359,-54.27349
2024-01-30 14:54:00+00:00,30.0,13.08,27.0,14.99,13.21,47.59359,-54.27349
2024-01-30 15:04:00+00:00,21.0,11.66,22.0,15.67,13.21,47.59359,-54.27349
2024-01-30 15:14:00+00:00,18.0,11.1,29.0,13.22,13.29,47.59359,-54.27349
2024-01-30 15:24:00+00:00,28.0,11.86,29.0,13.94,13.29,47.59359,-54.27349
2024-01-30 15:34:00+00:00,25.0,11.21,30.0,12.81,13.29,47.59359,-54.27349
2024-01-30 15:44:00+00:00,31.0,11.84,27.0,13.7,13.29,47.59359,-54.27349
2024-01-30 15:54:00+00:00,19.0,11.27,19.0,12.9,13.29,47.59359,-54.27349
2024-01-30 16:04:00+00:00,21.0,12.02,24.0,14.43,13.29,47.59359,-54.27349
2024-01-30 16:14:00+00:00,38.0,11.98,42.0,14.15,13.29,47.59359,-54.27349
2024-01-30 16:24:00+00:00,30.0,12.58,33.0,14.03,13.29,47.59359,-54.27349
2024-01-30 16:34:00+00:00,29.0,12.85,28.0,15.28,13.29,47.59359,-54.27349
2024-01-30 16:44:00+00:00,33.0,12.17,33.0,15.06,13.29,47.59359,-54.27349
2024-01-30 16:54:00+00:00,41.0,12.8,36.0,15.08,13.29,47.59359,-54.27349
2024-01-30 17:04:00+00:00,30.0,11.97,21.0,14.71,13.29,47.59359,-54.27349
2024-01-30 17:14:00+00:00,32.0,13.1,33.0,14.08,13.37,47.59359,-54.27349
2024-01-30 17:24:00+00:00,43.0,11.59,42.0,13.34,13.37,47.59359,-54.27349
2024-01-30 17:34:00+00:00,42.0,12.0,48.0,14.62,13.37,47.59359,-54.27349
2024-01-30 17:44:00+00:00,32.0,13.58,35.0,15.61,13.37,47.59359,-54.27349
2024-01-30 17:54:00+00:00,31.0,12.49,31.0,15.12,13.37,47.59359,-54.27349
2024-01-30 18:04:00+00:00,31.0,12.71,33.0,14.35,13.37,47.59359,-54.27349
2024-01-30 18:14:00+00:00,30.0,12.68,32.0,15.06,12.97,47.59359,-54.27349
2024-01-30 18:24:00+00:00,40.0,11.17,33.0,13.21,12.97,47.59359,-54.27349
2024-01-30 18:34:00+00:00,43.0,11.57,43.0,12.91,12.97,47.59359,-54.27349
2024-01-30 18:44:00+00:00,46.0,10.12,45.0,12.5,12.97,47.59359,-54.27349
2024-01-30 18:54:00+00:00,33.0,10.97,41.0,12.57,12.97,47.59359,-54.27349
2024-01-30 19:04:00+00:00,44.0,11.32,32.0,13.21,12.97,47.59359,-54.27349
2024-01-30 19:14:00+00:00,43.0,11.53,50.0,13.53,12.81,47.59359,-54.27349
2024-01-30 19:24:00+00:00,37.0,13.01,36.0,14.86,12.81,47.59359,-54.27349
2024-01-30 19:34:00+00:00,45.0,11.46,44.0,13.13,12.81,47.59359,-54.27349
2024-01-30 19:44:00+00:00,42.0,11.23,35.0,14.16,12.81,47.59359,-54.27349
2024-01-30 19:54:00+00:00,43.0,12.19,45.0,13.85,12.81,47.59359,-54.27349
2024-01-30 20:04:00+00:00,45.0,12.89,47.0,15.56,12.81,47.59359,-54.27349
2024-01-30 20:14:00+00:00,41.0,11.66,42.0,13.25,12.49,47.59359,-54.27349
2024-01-30 20:24:00+00:00,43.0,12.23,42.0,13.3,12.49,47.59359,-54.27349
2024-01-30 20:34:00+00:00,44.0,11.51,43.0,12.92,12.49,47.59359,-54.27349
2024-01-30 20:44:00+00:00,46.0,11.19,52.0,12.6,12.49,47.59359,-54.27349
2024-01-30 20:54:00+00:00,47.0,10.55,48.0,11.67,12.49,47.59359,-54.27349
2024-01-30 21:04:00+00:00,37.0,10.36,43.0,11.5,12.49,47.59359,-54.27349
2024-01-30 21:14:00+00:00,46.0,9.49,44.0,12.75,12.41,47.59359,-54.27349
2024-01-30 21:24:00+00:00,35.0,11.03,33.0,12.85,12.41,47.59359,-54.27349
2024-01-30 21:34:00+00:00,32.0,10.43,34.0,12.93,12.41,47.59359,-54.27349
2024-01-30 21:44:00+00:00,39.0,12.78,35.0,13.93,12.41,47.59359,-54.27349
2024-01-30 21:54:00+00:00,29.0,11.26,26.0,12.79,12.41,47.59359,-54.27349
2024-01-30 22:04:00+00:00,35.0,13.26,31.0,15.38,12.41,47.59359,-54.27349
2024-01-30 22:14:00+00:00,43.0,11.01,41.0,12.7,12.33,47.59359,-54.27349
2024-01-30 22:24:00+00:00,42.0,11.27,38.0,14.16,12.33,47.59359,-54.27349
2024-01-30 22:34:00+00:00,31.0,12.23,36.0,14.28,12.33,47.59359,-54.27349
2024-01-30 22:44:00+00:00,41.0,11.69,36.0,14.64,12.33,47.59359,-54.27349
2024-01-30 22:54:00+00:00,38.0,10.89,41.0,12.11,12.33,47.59359,-54.27349
2024-01-30 23:04:00+00:00,31.0,10.38,35.0,12.09,12.33,47.59359,-54.27349
2024-01-30 23:14:00+00:00,30.0,10.54,37.0,12.61,12.25,47.59359,-54.27349
2024-01-30 23:24:00+00:00,34.0,11.73,33.0,13.31,12.25,47.59359,-54.27349
2024-01-30 23:34:00+00:00,31.0,9.87,36.0,11.35,12.25,47.59359,-54.27349
2024-01-30 23:44:00+00:00,42.0,10.16,46.0,12.55,12.25,47.59359,-54.27349
2024-01-30 23:54:00+00:00,31.0,11.09,32.0,13.33,12.25,47.59359,-54.27349
